When you browse on this site, cookies collect data to enhance your experience and personalize the content and advertising you see.
Visit our Privacy Policy to learn more. By continuing to use the site, you agree to this use of cookies and data.
  • In Hungary
  • List of Countries
  • For 7 days
  • Water Temperature
  • Weather Map
  • News
  • Weather Widgets
  • user-avatar
    Login

    Hourly Weather Ajmer

    Today, 10 December, Tuesday

    Time Temperature Precipitation Wind Pressure Humidity
    00:00 +14°C° 0 mm 1 mps 708 mmHg 46%
    01:00 +12°C° 0 mm 0 mps 708 mmHg 47%
    02:00 +12°C° 0 mm 0 mps 708 mmHg 49%
    03:00 +12°C° 0 mm 0 mps 707 mmHg 50%
    04:00 +12°C° 0 mm 1 mps 707 mmHg 51%
    05:00 +12°C° 0 mm 1 mps 707 mmHg 54%
    06:00 +13°C° 0 mm 1 mps 708 mmHg 51%
    07:00 +15°C° 0 mm 1 mps 708 mmHg 48%
    08:00 +16°C° 0 mm 1 mps 709 mmHg 45%
    09:00 +19°C° 0 mm 1 mps 709 mmHg 40%
    10:00 +21°C° 0 mm 1 mps 709 mmHg 35%
    11:00 +23°C° 0 mm 1 mps 709 mmHg 31%
    12:00 +24°C° 0 mm 1 mps 708 mmHg 28%
    13:00 +25°C° 0 mm 1 mps 708 mmHg 25%
    14:00 +25°C° 0 mm 1 mps 707 mmHg 22%
    15:00 +22°C° 0 mm 0 mps 707 mmHg 26%
    16:00 +20°C° 0 mm 0 mps 706 mmHg 30%
    17:00 +18°C° 0 mm 0 mps 705 mmHg 34%
    18:00 +20°C° 0 mm 1 mps 706 mmHg 34%
    19:00 +19°C° 0 mm 1 mps 706 mmHg 34%
    20:00 +18°C° 0 mm 1 mps 707 mmHg 34%
    21:00 +16°C° 0 mm 1 mps 706 mmHg 35%
    22:00 +16°C° 0 mm 1 mps 706 mmHg 37%
    23:00 +15°C° 0 mm 1 mps 706 mmHg 38%

    Tomorrow, 11 December, Wednesday

    Time Temperature Precipitation Wind Pressure Humidity
    00:00 +15°C° 0 mm 1 mps 706 mmHg 40%
    01:00 +14°C° 0 mm 1 mps 705 mmHg 42%
    02:00 +14°C° 0 mm 1 mps 705 mmHg 44%
    03:00 +14°C° 0 mm 1 mps 705 mmHg 46%
    04:00 +13°C° 0 mm 1 mps 705 mmHg 48%
    05:00 +13°C° 0 mm 1 mps 705 mmHg 50%
    06:00 +14°C° 0 mm 1 mps 706 mmHg 47%
    07:00 +16°C° 0 mm 1 mps 707 mmHg 45%
    08:00 +18°C° 0 mm 1 mps 707 mmHg 43%
    09:00 +19°C° 0 mm 2 mps 707 mmHg 39%
    10:00 +21°C° 0 mm 2 mps 707 mmHg 35%
    11:00 +23°C° 0 mm 2 mps 707 mmHg 30%
    12:00 +24°C° 0 mm 2 mps 707 mmHg 28%
    13:00 +25°C° 0 mm 1 mps 706 mmHg 26%
    14:00 +25°C° 0 mm 1 mps 705 mmHg 24%
    15:00 +24°C° 0 mm 1 mps 705 mmHg 27%
    16:00 +23°C° 0 mm 1 mps 705 mmHg 31%
    17:00 +21°C° 0 mm 1 mps 704 mmHg 34%
    18:00 +21°C° 0 mm 1 mps 705 mmHg 35%
    19:00 +19°C° 0 mm 2 mps 705 mmHg 37%
    20:00 +19°C° 0 mm 2 mps 706 mmHg 38%
    21:00 +18°C° 0 mm 2 mps 706 mmHg 39%
    22:00 +18°C° 0 mm 2 mps 705 mmHg 41%
    23:00 +18°C° 0 mm 2 mps 705 mmHg 42%

    Day after tomorrow, 12 December, Thursday

    Time Temperature Precipitation Wind Pressure Humidity
    00:00 +18°C° 0 mm 2 mps 705 mmHg 43%
    01:00 +18°C° 0 mm 2 mps 705 mmHg 43%
    02:00 +18°C° 0 mm 3 mps 705 mmHg 43%
    03:00 +17°C° 0 mm 3 mps 705 mmHg 44%
    04:00 +17°C° 0 mm 3 mps 705 mmHg 45%
    05:00 +17°C° 0 mm 3 mps 704 mmHg 46%
    06:00 +17°C° 0 mm 4 mps 705 mmHg 46%
    07:00 +16°C° 0 mm 6 mps 705 mmHg 46%
    08:00 +16°C° 0 mm 7 mps 706 mmHg 45%
    09:00 +17°C° 0 mm 7 mps 706 mmHg 43%
    10:00 +18°C° 0 mm 7 mps 706 mmHg 41%
    11:00 +20°C° 0 mm 7 mps 706 mmHg 39%
    12:00 +21°C° 0 mm 7 mps 705 mmHg 38%
    13:00 +22°C° 0 mm 7 mps 704 mmHg 36%
    14:00 +23°C° 0 mm 6 mps 703 mmHg 35%
    15:00 +23°C° 0 mm 5 mps 703 mmHg 37%
    16:00 +22°C° 0 mm 4 mps 703 mmHg 39%
    17:00 +21°C° 0 mm 3 mps 702 mmHg 41%
    18:00 +20°C° 0 mm 3 mps 703 mmHg 44%
    19:00 +19°C° 0 mm 3 mps 703 mmHg 48%
    20:00 +18°C° 0 mm 3 mps 704 mmHg 51%
    21:00 +17°C° 0.5 mm 2 mps 704 mmHg 57%
    22:00 +16°C° 0.5 mm 2 mps 704 mmHg 62%
    23:00 +16°C° 0.5 mm 2 mps 704 mmHg 68%

    13 December, Friday

    Time Temperature Precipitation Wind Pressure Humidity
    00:00 +15°C° 0.6 mm 2 mps 704 mmHg 72%
    01:00 +15°C° 0.6 mm 1 mps 704 mmHg 76%
    02:00 +14°C° 0.6 mm 1 mps 704 mmHg 80%
    03:00 +14°C° 0.2 mm 1 mps 704 mmHg 83%
    04:00 +14°C° 0.2 mm 1 mps 704 mmHg 85%
    05:00 +13°C° 0.2 mm 1 mps 703 mmHg 88%
    06:00 +14°C° 0 mm 1 mps 704 mmHg 86%
    07:00 +14°C° 0 mm 1 mps 705 mmHg 84%
    08:00 +15°C° 0 mm 1 mps 706 mmHg 82%
    09:00 +17°C° 0 mm 2 mps 706 mmHg 73%
    10:00 +18°C° 0 mm 3 mps 706 mmHg 64%
    11:00 +20°C° 0 mm 3 mps 707 mmHg 55%
    12:00 +20°C° 0 mm 3 mps 706 mmHg 50%
    13:00 +21°C° 0 mm 4 mps 706 mmHg 44%
    14:00 +22°C° 0 mm 4 mps 706 mmHg 38%
    15:00 +21°C° 0 mm 3 mps 706 mmHg 40%
    16:00 +20°C° 0 mm 3 mps 706 mmHg 41%
    17:00 +19°C° 0 mm 2 mps 706 mmHg 43%
    18:00 +18°C° 0 mm 2 mps 706 mmHg 46%
    19:00 +17°C° 0 mm 2 mps 707 mmHg 48%
    20:00 +16°C° 0 mm 2 mps 707 mmHg 50%
    21:00 +15°C° 0 mm 2 mps 708 mmHg 51%
    22:00 +15°C° 0 mm 2 mps 708 mmHg 52%
    23:00 +14°C° 0 mm 3 mps 708 mmHg 53%

    14 December, Saturday

    Time Temperature Precipitation Wind Pressure Humidity
    00:00 +14°C° 0 mm 2 mps 708 mmHg 54%
    01:00 +14°C° 0 mm 2 mps 708 mmHg 56%
    02:00 +13°C° 0 mm 2 mps 708 mmHg 58%
    03:00 +13°C° 0 mm 2 mps 708 mmHg 59%
    04:00 +12°C° 0 mm 2 mps 708 mmHg 60%
    05:00 +11°C° 0 mm 3 mps 708 mmHg 61%
    06:00 +11°C° 0 mm 3 mps 709 mmHg 60%
    07:00 +12°C° 0 mm 3 mps 709 mmHg 58%
    08:00 +12°C° 0 mm 3 mps 710 mmHg 57%
    09:00 +14°C° 0 mm 3 mps 710 mmHg 50%
    10:00 +17°C° 0 mm 3 mps 710 mmHg 44%
    11:00 +19°C° 0 mm 3 mps 711 mmHg 37%
    12:00 +20°C° 0 mm 2 mps 710 mmHg 34%
    13:00 +20°C° 0 mm 2 mps 710 mmHg 30%
    14:00 +22°C° 0 mm 1 mps 709 mmHg 26%
    15:00 +21°C° 0 mm 1 mps 709 mmHg 28%
    16:00 +20°C° 0 mm 1 mps 708 mmHg 30%
    17:00 +18°C° 0 mm 2 mps 708 mmHg 33%
    18:00 +18°C° 0 mm 1 mps 708 mmHg 35%
    19:00 +16°C° 0 mm 1 mps 708 mmHg 37%
    20:00 +15°C° 0 mm 1 mps 709 mmHg 40%
    21:00 +15°C° 0 mm 1 mps 709 mmHg 39%
    22:00 +15°C° 0 mm 2 mps 709 mmHg 39%
    23:00 +15°C° 0 mm 2 mps 709 mmHg 38%

    15 December, Sunday

    Time Temperature Precipitation Wind Pressure Humidity
    00:00 +14°C° 0 mm 3 mps 709 mmHg 42%
    01:00 +13°C° 0 mm 3 mps 709 mmHg 45%
    02:00 +13°C° 0 mm 3 mps 709 mmHg 48%
    03:00 +13°C° 0 mm 3 mps 708 mmHg 55%
    04:00 +14°C° 0 mm 2 mps 708 mmHg 62%
    05:00 +13°C° 0 mm 2 mps 708 mmHg 69%
    06:00 +14°C° 0 mm 2 mps 709 mmHg 68%
    07:00 +14°C° 0 mm 2 mps 709 mmHg 67%
    08:00 +13°C° 0 mm 3 mps 710 mmHg 66%
    09:00 +16°C° 0 mm 3 mps 710 mmHg 60%
    10:00 +17°C° 0 mm 3 mps 710 mmHg 53%
    11:00 +19°C° 0 mm 3 mps 710 mmHg 47%
    12:00 +20°C° 0 mm 2 mps 710 mmHg 42%
    13:00 +21°C° 0 mm 2 mps 709 mmHg 37%
    14:00 +21°C° 0 mm 2 mps 708 mmHg 32%
    15:00 +20°C° 0 mm 2 mps 708 mmHg 33%
    16:00 +20°C° 0 mm 2 mps 708 mmHg 34%
    17:00 +19°C° 0 mm 3 mps 708 mmHg 35%
    18:00 +18°C° 0 mm 3 mps 708 mmHg 38%
    19:00 +17°C° 0 mm 3 mps 709 mmHg 42%
    20:00 +15°C° 0 mm 4 mps 709 mmHg 45%
    21:00 +14°C° 0 mm 4 mps 709 mmHg 47%
    22:00 +14°C° 0 mm 4 mps 709 mmHg 49%
    23:00 +13°C° 0 mm 4 mps 709 mmHg 51%
    Show more